User: anonymous   Login
Location: Unspecified
(0.0000°N, 0.0000°E)
Time: 04:55:34
(UTC+00:00)
Language:

TACSAT 4 - Orbit

View from above orbital plane
View from above orbital plane
View from above satellite
View from above satellite

Ground track
Ground track

The orbit data is extracted from the following two-line orbital elements,

1 37818U 11052A   18267.43257410 -.00000028 +00000-0 -83307-5 0  9994
2 37818 063.1549 181.1249 4572727 217.4269 298.4330 06.02597580153828
Epoch (UTC): 24 September 2018 10:22:54
Eccentricity: 0.4572727
inclination: 63.1549°
perigee height: 545 km
apogee height: 12211 km
right ascension of ascending node: 181.1249°
argument of perigee: 217.4269°
revolutions per day: 6.02597580
mean anomaly at epoch: 298.4330°
orbit number at epoch: 15382

The dashed part of the orbit path shows where the satellite is in the earth's shadow,  

DLR